Miscellaneous Local Product
Issued by NWS Hastings, NE

Home | Current Version | Previous Version | Graphics & Text | Print | Product List | Glossary On
Versions: 1 2 3 4 5 6 7 8 9 10 11 12 13 14 15 16 17 18 19 20 21 22 23 24 25 26 27 28 29 30 31 32 33 34 35 36 37 38 39 40 41 42 43 44 45 46 47 48 49 50
914
AXUS43 KGID 100402
MISGRI

GID CWA HOURLY WEATHER ROUNDUP
NATIONAL WEATHER SERVICE HASTINGS NE
1000 PM CST FRI DEC 09 2016

NOTE: "FAIR" INDICATES FEW OR NO CLOUDS BELOW 12,000 FEET WITH NO
SIGNIFICANT WEATHER AND/OR OBSTRUCTIONS TO VISIBILITY.

...SOUTH CENTRAL NEBRASKA...

CITY           SKY/WX    TMP DP  RH WIND       PRES   REMARKS
GRAND ISLAND   CLOUDY    16  11  80 S6        30.40S WCI   7
HASTINGS       CLOUDY    17  12  80 SE7       30.40R WCI   8
KEARNEY        CLOUDY    12   7  79 SE6       30.38S WCI   3
ORD            CLOUDY    11   6  81 NE3       30.37R
YORK           CLOUDY    19  14  79 S6        30.42S WCI  11
AURORA         CLOUDY    17  11  79 S6        30.40S WCI   8
LEXINGTON      CLOUDY    17  11  78 E6        30.33F WCI   8
HOLDREGE       CLOUDY    14   9  82 E9        30.34S WCI   2
HEBRON         CLOUDY    17  12  83 CALM      30.43S

...NEBRASKA PANHANDLE...

CITY           SKY/WX    TMP DP  RH WIND       PRES   REMARKS
CHADRON        CLOUDY     5  -1  76 NE10      30.27F WCI -10
ALLIANCE       CLOUDY     7   2  80 NE9       30.20F WCI  -7
SCOTTSBLUFF    CLOUDY    14   5  67 E10       30.18F WCI   1
SIDNEY         CLOUDY    20  12  71 SE12      30.15F WCI   8

...WESTERN AND NORTH CENTRAL NEBRASKA...

CITY           SKY/WX    TMP DP  RH WIND       PRES   REMARKS
VALENTINE      CLOUDY     6   1  80 N9        30.37F WCI  -8
AINSWORTH      CLOUDY    10   8  92 NE9       30.36F WCI  -4
ONEILL         FLURRIES  11   9  92 N6        30.43R WCI   1
BROKEN BOW     CLOUDY    16  11  80 SE3       30.33R
IMPERIAL       CLOUDY    19  13  77 SE5       30.24R WCI  12
NORTH PLATTE   CLOUDY    14  10  84 E7        30.29F WCI   4
MCCOOK         CLOUDY    14   9  80 NE7       30.29R WCI   4

...EASTERN NEBRASKA...

CITY           SKY/WX    TMP DP  RH WIND       PRES   REMARKS
NORFOLK        CLOUDY    18  11  74 E5        30.43F WCI  11
SO SIOUX CITY  FLURRIES  20  10  65 E3        30.50F
TEKAMAH        CLOUDY    20  11  68 NE3       30.49F
COLUMBUS       CLOUDY    19  12  73 SE6       30.43F WCI  11
ALBION         CLOUDY    15  10  80 E5        30.40S WCI   7
OMAHA EPPLEY   CLOUDY    22  11  62 SE7       30.50F WCI  13
OFFUTT AFB     CLOUDY    22  14  72 E6        30.49F WCI  14
MILLARD        CLOUDY    24  14  66 SE5       30.49F WCI  18
LINCOLN        CLOUDY    23  14  68 E6        30.47F WCI  16
NEBRASKA CITY  CLOUDY    23  11  60 SE5       30.48F WCI  17
BEATRICE       CLOUDY    25  15  65 SE5       30.45S WCI  19
FALLS CITY     CLOUDY    25  14  63 E6        30.49F WCI  18

...NORTHERN KANSAS...

CITY           SKY/WX    TMP DP  RH WIND       PRES   REMARKS
GOODLAND       CLOUDY    24  19  81 S15       30.19S WCI  11
HILL CITY      CLOUDY    19  12  74 E5        30.33R WCI  12
NORTON         CLEAR     16   9  73 E5        30.30R WCI   9
PHILLIPSBURG   CLEAR     16  10  79 E6        30.35F WCI   7
SMITH CENTER   CLEAR     12   9  85 E9        30.38F WCI   0
BELOIT         CLEAR     19  12  73 E6        30.42S WCI  11
HAYS           CLOUDY    19  12  74 SE8       30.35F WCI   9
RUSSELL        CLOUDY    19  12  74 SE10      30.35F WCI   7
CONCORDIA      PTCLDY    21  16  81 SE3       30.42F
SALINA         CLOUDY    28  14  55 S7        30.44F WCI  21
TOPEKA         CLOUDY    28  17  63 E5        30.50F WCI  23



USA.gov is the U.S. government's official web portal to all federal, state and local government web resources and services.